Location: Antin
(43.3330°N, 0.2804°E)
Time: 05:07:01
(UTC+00:00)

CZ-4B R/B - Pass Details

Date: 16 October 2021
Orbit: 808 x 882 km, 99.1° (Epoch: 02 December)

Event Time Altitude Azimuth Distance (km) Brightness Sun altitude
Rises 18:31:52 0° 180° (S) 3,441 6.4 -14.9°
Reaches altitude 10° 18:34:19 10° 186° (S) 2,516 5.7 -15.3°
Maximum altitude 18:39:44 49° 260° (W) 1,125 4.3 -16.3°
Drops below altitude 10° 18:45:14 10° 335° (NNW) 2,550 6.1 -17.3°
Sets 18:47:44 0° 341° (NNW) 3,493 6.7 -17.8°
